Regional Weather Roundup
Issued by NWS

Home | Current Version | Previous Version | Text Only | Print | Product List | Glossary Off
Versions: 1 2 3 4 5 6 7 8 9 10 11 12 13 14 15 16 17 18 19 20 21 22 23 24 25 26 27 28 29 30 31 32 33 34 35 36 37 38 39 40 41 42 43 44 45 46 47 48 49 50

000
ASUS45 KCYS 221110
RWRWY

WYOMING REGIONAL WEATHER ROUNDUP
NATIONAL WEATHER SERVICE CHEYENNE WY
400 AM MST SUN JAN 22 2017

NOTE:  "FAIR" INDICATES FEW OR NO CLOUDS BELOW 12,000 FEET
WITH NO SIGNIFICANT WEATHER AND/OR OBSTRUCTIONS TO VISIBILITY.

WYZ001-221200-
YELLOWSTONE NATIONAL PARK

CITY           SKY/WX    TMP DP  RH WIND       PRES   REMARKS
LK YELLOWSTONE   N/A     14  13  95 CALM      29.84R
W YELLOWSTONE  NOT AVBL

$$
WYZ002>013-054>058-071-098>099-221200-
NORTHERN WYOMING

CITY           SKY/WX    TMP DP  RH WIND       PRES   REMARKS
JACKSON        CLOUDY    25  21  86 S14       29.87R WCI  13
CODY           FAIR      33  17  51 NW14      29.80R WCI  23
GREYBULL       FAIR      11   8  88 CALM      29.84R
WORLAND        FAIR      12  10  92 NW6       29.82S WCI   3
SHERIDAN       CLOUDY    27  18  69 W7        29.78R WCI  19
BUFFALO        FAIR      29  15  56 NW5       29.77R WCI  24
GILLETTE       FAIR      24  20  84 W7        29.76R WCI  16
HULETT         FAIR      25  21  86 SW6       29.75S WCI  18
NEWCASTLE      FAIR      19  18  93 N3        29.78R

$$
WYZ014>020-022>026-101>103-221200-
CENTRAL WYOMING

CITY           SKY/WX    TMP DP  RH WIND       PRES   REMARKS
BIG PINEY      FAIR       2  -2  83 NE5       29.90S WCI  -8
PINEDALE       FAIR       7   3  85 CALM      29.91S
DUBOIS         NOT AVBL
LANDER         FAIR      21  13  71 SW8       29.82R WCI  11
RIVERTON       FAIR     N/A N/A N/A SW5       29.83R
CASPER         CLOUDY    24  17  74 SW16      29.80R WCI  11
DOUGLAS        FAIR      21  16  81 N5        29.80R WCI  15

$$
WYZ021-027>030-104>119-221200-
SOUTHERN WYOMING

CITY           SKY/WX    TMP DP  RH WIND       PRES   REMARKS
EVANSTON       CLOUDY    19  15  84 SW9       29.93F WCI   8
ROCK SPRINGS   FAIR      18  13  80 W18       29.93R WCI   2
RAWLINS        FAIR      17  12  80 SW16      29.88R WCI   2
LARAMIE        CLOUDY    25  11  55 VRB6      29.80R WCI  18
CHEYENNE       FAIR      29  15  56 NW15      29.77R WCI  18
TORRINGTON     FAIR      26  20  77 NW9       29.78R WCI  17

$$



USA.gov is the U.S. government's official web portal to all federal, state and local government web resources and services.